METAR Formatted Surface Weather Observation
Issued by NWS

Home | Current Version | Previous Version | Text Only | Print | Product List | Glossary On
Versions: 1 2 3
000
SPZS31 NSTU 021044
MTRSPP
SPECI NSTU 021034Z 13019G24KT 5SM -SHRA BKN012 OVC036 24/23 A2987=


USA.gov is the U.S. government's official web portal to all federal, state and local government web resources and services.